| time (UTC) | temp F | wind direction | speed knots | gust knots | rain 1hr in | rain 24hr in | rain mn in | humidity % | barometer mb |
| 20260505111615 | 87 | 348 | 4.3 | 6.1 | 0.00 | 0.00 | 0.21 | 69 | 1005.0 |
| 20260505111114 | 87 | 359 | 3.5 | 4.3 | 0.00 | 0.00 | 0.21 | 69 | 1005.0 |
| 20260505110614 | 88 | 59 | 3.5 | 7.0 | 0.00 | 0.00 | 0.21 | 69 | 1005.0 |
| 20260505110114 | 88 | 329 | 4.3 | 6.1 | 0.00 | 0.00 | 0.21 | 70 | 1005.0 |
| 20260505102115 | 90 | 23 | 4.3 | 5.2 | 0.00 | 0.00 | 0.21 | 67 | 1005.0 |
| 20260505101614 | 90 | 41 | 0.9 | 1.7 | 0.00 | 0.00 | 0.21 | 68 | 1005.0 |
| 20260505101114 | 91 | 4 | 3.5 | 5.2 | 0.00 | 0.00 | 0.21 | 67 | 1005.0 |
| 20260505100614 | 91 | 32 | 1.7 | 1.7 | 0.00 | 0.00 | 0.21 | 67 | 1005.0 |
| 20260505100114 | 92 | 30 | 3.5 | 6.1 | 0.00 | 0.00 | 0.21 | 67 | 1005.0 |
| 20260505095616 | 92 | 32 | 2.6 | 2.6 | 0.00 | 0.00 | 0.21 | 67 | 1005.0 |
| 20260505095115 | 93 | 338 | 3.5 | 5.2 | 0.00 | 0.00 | 0.21 | 66 | 1005.0 |
| 20260505094614 | 93 | 20 | 2.6 | 4.3 | 0.00 | 0.00 | 0.21 | 65 | 1005.0 |
| 20260505094114 | 93 | 55 | 1.7 | 1.7 | 0.00 | 0.00 | 0.21 | 66 | 1005.0 |
| 20260505093614 | 93 | 0 | 2.6 | 5.2 | 0.00 | 0.00 | 0.21 | 64 | 1005.0 |
| 20260505093115 | 93 | 42 | 2.6 | 4.3 | 0.00 | 0.00 | 0.21 | 65 | 1005.0 |
| 20260505092614 | 94 | 103 | 3.5 | 4.3 | 0.00 | 0.00 | 0.21 | 64 | 1005.0 |
| 20260505092114 | 95 | 32 | 2.6 | 2.6 | 0.00 | 0.00 | 0.21 | 59 | 1005.0 |
| 20260505091614 | 95 | 41 | 1.7 | 2.6 | 0.00 | 0.00 | 0.21 | 58 | 1005.0 |
| 20260505091115 | 95 | 55 | 1.7 | 1.7 | 0.00 | 0.00 | 0.21 | 58 | 1005.0 |
| 20260505090614 | 95 | 74 | 0.9 | 0.9 | 0.00 | 0.00 | 0.21 | 58 | 1005.0 |
| 20260505090115 | 95 | 50 | 1.7 | 4.3 | 0.00 | 0.00 | 0.21 | 60 | 1005.0 |
| 20260505085614 | 96 | 55 | 1.7 | 1.7 | 0.00 | 0.00 | 0.21 | 60 | 1005.0 |
| 20260505085114 | 95 | 48 | 0.9 | 1.7 | 0.00 | 0.00 | 0.21 | 59 | 1006.0 |
| 20260505084614 | 96 | 30 | 3.5 | 5.2 | 0.00 | 0.00 | 0.21 | 56 | 1006.0 |
| 20260505084114 | 96 | 32 | 0.9 | 1.7 | 0.00 | 0.00 | 0.21 | 48 | 1006.0 |
| 20260505083614 | 96 | 57 | 1.7 | 1.7 | 0.00 | 0.00 | 0.21 | 52 | 1006.0 |
| 20260505083114 | 97 | 40 | 1.7 | 1.7 | 0.00 | 0.00 | 0.21 | 51 | 1005.0 |
| 20260505082614 | 99 | 53 | 0.9 | 0.9 | 0.00 | 0.00 | 0.21 | 44 | 1006.0 |
| 20260505082114 | 97 | 65 | 0.0 | 0.9 | 0.00 | 0.00 | 0.21 | 47 | 1006.0 |
| 20260505081614 | 96 | 29 | 0.9 | 2.6 | 0.00 | 0.00 | 0.21 | 51 | 1006.0 |
| 20260505081114 | 96 | 43 | 4.3 | 5.2 | 0.00 | 0.00 | 0.21 | 50 | 1006.0 |
| 20260505080615 | 96 | 46 | 2.6 | 2.6 | 0.00 | 0.00 | 0.21 | 49 | 1006.0 |
| 20260505080115 | 95 | 58 | 0.9 | 0.9 | 0.00 | 0.00 | 0.21 | 54 | 1006.0 |
| 20260505075615 | 95 | 59 | 2.6 | 4.3 | 0.00 | 0.00 | 0.21 | 56 | 1006.0 |
| 20260505075118 | 94 | 40 | 2.6 | 2.6 | 0.00 | 0.00 | 0.21 | 59 | 1006.0 |
| 20260505074615 | 94 | 36 | 1.7 | 1.7 | 0.00 | 0.00 | 0.21 | 58 | 1006.0 |
| 20260505073647 | 95 | 60 | 1.7 | 2.6 | 0.00 | 0.00 | 0.21 | 57 | 1006.0 |
| 20260505073114 | 95 | 44 | 0.9 | 0.9 | 0.00 | 0.00 | 0.21 | 57 | 1006.0 |
| 20260505072615 | 94 | 46 | 1.7 | 1.7 | 0.00 | 0.00 | 0.21 | 58 | 1006.0 |
| 20260505072114 | 94 | 36 | 4.3 | 5.2 | 0.00 | 0.00 | 0.21 | 57 | 1007.0 |
| 20260505071614 | 94 | 31 | 2.6 | 2.6 | 0.00 | 0.00 | 0.21 | 60 | 1007.0 |
| 20260505071115 | 94 | 23 | 4.3 | 5.2 | 0.00 | 0.00 | 0.21 | 57 | 1007.0 |
| 20260505070615 | 94 | 27 | 1.7 | 4.3 | 0.00 | 0.00 | 0.21 | 57 | 1007.0 |
| 20260505070115 | 94 | 55 | 2.6 | 2.6 | 0.00 | 0.00 | 0.21 | 57 | 1007.0 |
| 20260505065614 | 94 | 64 | 2.6 | 4.3 | 0.00 | 0.00 | 0.21 | 54 | 1007.0 |
| 20260505065114 | 93 | 65 | 0.9 | 1.7 | 0.00 | 0.00 | 0.21 | 56 | 1007.0 |
| 20260505064615 | 94 | 63 | 1.7 | 1.7 | 0.00 | 0.00 | 0.21 | 57 | 1007.0 |
| 20260505064114 | 93 | 69 | 0.9 | 1.7 | 0.00 | 0.00 | 0.21 | 55 | 1007.0 |
| 20260505063615 | 93 | 53 | 2.6 | 2.6 | 0.00 | 0.00 | 0.21 | 58 | 1008.0 |
| 20260505063115 | 93 | 60 | 3.5 | 4.3 | 0.00 | 0.00 | 0.21 | 56 | 1008.0 |
| 20260505062615 | 92 | 29 | 2.6 | 2.6 | 0.00 | 0.00 | 0.21 | 57 | 1008.0 |
| 20260505062115 | 93 | 9 | 5.2 | 6.1 | 0.00 | 0.00 | 0.21 | 57 | 1008.0 |
| 20260505061614 | 91 | 42 | 1.7 | 2.6 | 0.00 | 0.00 | 0.21 | 59 | 1008.0 |
| 20260505061114 | 91 | 48 | 2.6 | 2.6 | 0.00 | 0.00 | 0.21 | 59 | 1008.0 |
| 20260505060615 | 91 | 31 | 1.7 | 1.7 | 0.00 | 0.00 | 0.21 | 59 | 1008.0 |
| 20260505060114 | 91 | 359 | 3.5 | 5.2 | 0.00 | 0.00 | 0.21 | 58 | 1008.0 |
| 20260505055614 | 92 | 40 | 3.5 | 5.2 | 0.00 | 0.00 | 0.21 | 58 | 1008.0 |
| 20260505055116 | 91 | 58 | 1.7 | 1.7 | 0.00 | 0.00 | 0.21 | 60 | 1008.0 |
| 20260505054617 | 90 | 33 | 2.6 | 4.3 | 0.00 | 0.00 | 0.21 | 61 | 1008.0 |
| 20260505054114 | 91 | 66 | 2.6 | 2.6 | 0.00 | 0.00 | 0.21 | 60 | 1008.0 |
| 20260505053615 | 91 | 63 | 0.0 | 0.0 | 0.00 | 0.00 | 0.21 | 58 | 1008.0 |
| 20260505053114 | 90 | 61 | 0.9 | 1.7 | 0.00 | 0.00 | 0.21 | 58 | 1008.0 |
| 20260505052615 | 90 | 32 | 3.5 | 4.3 | 0.00 | 0.00 | 0.21 | 56 | 1008.0 |
| 20260505052115 | 90 | 37 | 3.5 | 4.3 | 0.00 | 0.00 | 0.21 | 58 | 1008.0 |
| 20260505051614 | 91 | 63 | 0.9 | 1.7 | 0.00 | 0.00 | 0.21 | 58 | 1008.0 |
| 20260505051114 | 91 | 68 | 0.9 | 0.9 | 0.00 | 0.00 | 0.21 | 59 | 1008.0 |
| 20260505050614 | 92 | 78 | 0.0 | 0.0 | 0.00 | 0.00 | 0.21 | 55 | 1009.0 |
| 20260505050115 | 92 | 28 | 2.6 | 2.6 | 0.00 | 0.00 | 0.21 | 56 | 1008.0 |
| 20260505041614 | 85 | 64 | 1.7 | 1.7 | 0.00 | 0.00 | 0.21 | 70 | 1009.0 |
| 20260505041115 | 84 | 72 | 2.6 | 2.6 | 0.00 | 0.00 | 0.21 | 72 | 1009.0 |
| 20260505040617 | 84 | 77 | 2.6 | 2.6 | 0.00 | 0.00 | 0.21 | 71 | 1009.0 |
| 20260505040115 | 84 | 68 | 1.7 | 2.6 | 0.00 | 0.00 | 0.21 | 71 | 1009.0 |
| 20260505035615 | 84 | 70 | 1.7 | 2.6 | 0.00 | 0.00 | 0.21 | 72 | 1009.0 |
| 20260505035114 | 84 | 71 | 0.9 | 0.9 | 0.00 | 0.00 | 0.21 | 72 | 1009.0 |
| 20260505034616 | 83 | 67 | 1.7 | 1.7 | 0.00 | 0.00 | 0.21 | 73 | 1009.0 |
| 20260505034115 | 84 | 70 | 0.9 | 0.9 | 0.00 | 0.00 | 0.21 | 74 | 1009.0 |
| 20260505033614 | 84 | 80 | 0.9 | 0.9 | 0.00 | 0.00 | 0.21 | 72 | 1009.0 |
| 20260505033114 | 84 | 66 | 0.9 | 0.9 | 0.00 | 0.00 | 0.21 | 73 | 1009.0 |
| 20260505031115 | 81 | 58 | 0.9 | 0.9 | 0.00 | 0.00 | 0.21 | 80 | 1009.0 |
| 20260505030615 | 81 | 57 | 0.0 | 0.9 | 0.00 | 0.00 | 0.21 | 81 | 1008.0 |
| 20260505030114 | 80 | 48 | 0.9 | 1.7 | 0.00 | 0.00 | 0.21 | 81 | 1008.0 |
| 20260505025614 | 80 | 49 | 0.9 | 1.7 | 0.00 | 0.00 | 0.21 | 83 | 1008.0 |
| 20260505025114 | 80 | 56 | 0.9 | 0.9 | 0.00 | 0.00 | 0.21 | 84 | 1008.0 |
| 20260505024614 | 80 | 58 | 0.0 | 0.0 | 0.00 | 0.00 | 0.21 | 85 | 1008.0 |
| 20260505024114 | 79 | 68 | 1.7 | 1.7 | 0.00 | 0.00 | 0.21 | 85 | 1008.0 |
| 20260505023614 | 79 | 57 | 0.9 | 0.9 | 0.00 | 0.00 | 0.21 | 85 | 1008.0 |
| 20260505023115 | 78 | 53 | 2.6 | 2.6 | 0.00 | 0.00 | 0.21 | 85 | 1008.0 |
| 20260505022615 | 78 | 62 | 0.9 | 1.7 | 0.00 | 0.00 | 0.21 | 86 | 1008.0 |
| 20260505022114 | 78 | 48 | 1.7 | 2.6 | 0.00 | 0.00 | 0.21 | 87 | 1008.0 |
| 20260505021614 | 77 | 55 | 1.7 | 1.7 | 0.00 | 0.00 | 0.21 | 87 | 1007.0 |
| 20260505021115 | 77 | 31 | 2.6 | 2.6 | 0.00 | 0.00 | 0.21 | 88 | 1007.0 |
| 20260505020614 | 77 | 49 | 1.7 | 1.7 | 0.00 | 0.00 | 0.21 | 88 | 1008.0 |
| 20260505020114 | 77 | 59 | 0.9 | 1.7 | 0.00 | 0.00 | 0.21 | 89 | 1008.0 |
| 20260505015614 | 77 | 51 | 1.7 | 1.7 | 0.00 | 0.00 | 0.21 | 89 | 1008.0 |
| 20260505015115 | 77 | 57 | 0.9 | 1.7 | 0.00 | 0.00 | 0.21 | 89 | 1007.0 |
| 20260505014615 | 77 | 49 | 0.9 | 1.7 | 0.00 | 0.00 | 0.21 | 90 | 1007.0 |
| 20260505014114 | 76 | 41 | 1.7 | 1.7 | 0.00 | 0.00 | 0.21 | 90 | 1007.0 |
| 20260505013614 | 76 | 53 | 1.7 | 1.7 | 0.00 | 0.00 | 0.21 | 90 | 1007.0 |
| 20260505013115 | 76 | 54 | 0.9 | 1.7 | 0.00 | 0.00 | 0.21 | 90 | 1007.0 |
| 20260505012614 | 76 | 55 | 0.9 | 0.9 | 0.00 | 0.00 | 0.21 | 90 | 1007.0 |
| 20260505012115 | 76 | 51 | 1.7 | 1.7 | 0.00 | 0.00 | 0.21 | 90 | 1007.0 |
| 20260505011614 | 76 | 43 | 0.9 | 1.7 | 0.00 | 0.00 | 0.21 | 91 | 1007.0 |
| 20260505011114 | 76 | 49 | 0.9 | 0.9 | 0.00 | 0.00 | 0.21 | 91 | 1007.0 |
| 20260505010614 | 76 | 57 | 0.9 | 1.7 | 0.00 | 0.00 | 0.21 | 91 | 1007.0 |
| 20260505010120 | 76 | 39 | 0.9 | 1.7 | 0.00 | 0.00 | 0.21 | 91 | 1007.0 |
| 20260505005614 | 76 | 47 | 1.7 | 1.7 | 0.00 | 0.00 | 0.21 | 91 | 1007.0 |
| 20260505005114 | 76 | 51 | 0.9 | 0.9 | 0.00 | 0.00 | 0.21 | 91 | 1007.0 |
| 20260505004614 | 76 | 40 | 1.7 | 1.7 | 0.00 | 0.00 | 0.21 | 91 | 1007.0 |
| 20260505004114 | 76 | 49 | 0.9 | 1.7 | 0.00 | 0.00 | 0.21 | 91 | 1007.0 |
| 20260504215115 | 76 | 66 | 0.9 | 0.9 | 0.00 | 0.00 | 0.21 | 91 | 1006.0 |
| 20260504214614 | 76 | 69 | 1.7 | 1.7 | 0.00 | 0.00 | 0.21 | 91 | 1006.0 |
| 20260504214114 | 75 | 60 | 1.7 | 1.7 | 0.00 | 0.00 | 0.21 | 91 | 1006.0 |
| 20260504213614 | 75 | 62 | 0.9 | 0.9 | 0.00 | 0.00 | 0.21 | 91 | 1006.0 |
| 20260504213114 | 75 | 73 | 1.7 | 2.6 | 0.00 | 0.00 | 0.21 | 91 | 1006.0 |
| 20260504212615 | 75 | 58 | 0.9 | 0.9 | 0.00 | 0.00 | 0.21 | 91 | 1006.0 |
| 20260504212114 | 75 | 59 | 1.7 | 1.7 | 0.00 | 0.00 | 0.21 | 91 | 1006.0 |
| 20260504211616 | 75 | 58 | 0.9 | 0.9 | 0.07 | 0.00 | 0.21 | 91 | 1006.0 |
| 20260504211114 | 75 | 51 | 1.7 | 2.6 | 0.07 | 0.00 | 0.21 | 91 | 1006.0 |
| 20260504210614 | 75 | 56 | 0.9 | 0.9 | 0.07 | 0.00 | 0.21 | 90 | 1006.0 |
| 20260504210114 | 75 | 53 | 0.9 | 0.9 | 0.00 | 0.00 | 0.20 | 90 | 1006.0 |
| 20260504205615 | 75 | 59 | 0.9 | 0.9 | 0.05 | 0.00 | 0.20 | 90 | 1006.0 |
| 20260504205114 | 75 | 59 | 0.9 | 0.9 | 0.05 | 0.00 | 0.20 | 90 | 1006.0 |
| 20260504204614 | 75 | 70 | 0.9 | 0.9 | 0.07 | 0.00 | 0.19 | 90 | 1006.0 |
| 20260504204115 | 75 | 43 | 3.5 | 4.3 | 0.12 | 0.00 | 0.19 | 90 | 1007.0 |
| 20260504203615 | 75 | 65 | 0.9 | 0.9 | 0.05 | 0.00 | 0.18 | 90 | 1007.0 |
| 20260504203114 | 75 | 61 | 0.9 | 0.9 | 0.07 | 0.00 | 0.17 | 90 | 1007.0 |
| 20260504202615 | 75 | 54 | 3.5 | 5.2 | 0.12 | 0.00 | 0.17 | 90 | 1007.0 |
| 20260504202114 | 75 | 48 | 2.6 | 2.6 | 0.12 | 0.00 | 0.16 | 90 | 1007.0 |
| 20260504201614 | 75 | 52 | 0.9 | 1.7 | 0.19 | 0.00 | 0.15 | 90 | 1007.0 |
| 20260504201114 | 75 | 27 | 2.6 | 5.2 | 0.19 | 0.00 | 0.14 | 90 | 1007.0 |
| 20260504200615 | 75 | 65 | 1.7 | 1.7 | 0.12 | 0.00 | 0.12 | 90 | 1007.0 |
| 20260504200115 | 75 | 60 | 1.7 | 1.7 | 0.12 | 0.00 | 0.11 | 90 | 1007.0 |
| 20260504195615 | 75 | 62 | 0.9 | 1.7 | 0.19 | 0.00 | 0.10 | 90 | 1007.0 |
| 20260504195114 | 75 | 52 | 2.6 | 2.6 | 0.17 | 0.00 | 0.09 | 90 | 1007.0 |
| 20260504160115 | 85 | 100 | 1.7 | 1.7 | 0.00 | 0.00 | 0.00 | 76 | 1008.0 |
| 20260504151115 | 85 | 57 | 0.9 | 0.9 | 0.00 | 0.00 | 0.00 | 73 | 1006.0 |
| 20260504150614 | 85 | 54 | 0.9 | 0.9 | 0.00 | 0.00 | 0.00 | 73 | 1006.0 |
| 20260504150117 | 85 | 40 | 2.6 | 2.6 | 0.00 | 0.00 | 0.00 | 73 | 1006.0 |
| 20260504141115 | 86 | 63 | 1.7 | 2.6 | 0.00 | 0.00 | 0.00 | 73 | 1005.0 |
| 20260504140615 | 86 | 10 | 3.5 | 6.1 | 0.00 | 0.00 | 0.00 | 73 | 1005.0 |
| 20260504140115 | 87 | 20 | 0.9 | 2.6 | 0.00 | 0.00 | 0.00 | 73 | 1005.0 |
| 20260504130615 | 88 | 51 | 0.9 | 1.7 | 0.00 | 0.00 | 0.00 | 72 | 1004.0 |
| 20260504130116 | 88 | 54 | 0.9 | 0.9 | 0.00 | 0.00 | 0.00 | 71 | 1004.0 |
| 20260504120114 | 92 | 62 | 1.7 | 1.7 | 0.00 | 0.00 | 0.00 | 69 | 1003.0 |